sat.trackr.live / text

‹ back to catalog

STARLINK-4262

NORAD 53015 · 2022-076AF

PAYLOAD ACTIVE UNKNOWN

§ Identity

Operator
Country
US
Launch date
2022-07-07
Launch site
AFETR
Launch vehicle
Mass (kg)
RCS (m²)

Purposes: comms

External: N2YO · Heavens-Above · Gunter

§ Orbital elements

Epoch: 2026-09-19T16:21:36.692352Z

Period
93.79 min
Inclination
53.1611°
Eccentricity
0.0001332
Mean motion
15.35404515 rev/d
Perigee alt
458.8 km
Apogee alt
460.6 km
Semi-major
6,837.9 km
B*
2.7152e-5
RAAN
285.3578°
Arg perigee
73.1235°
Mean anomaly
286.9914°
Rev number
23,237

§ Raw data

STARLINK-42621 53015U 22076AF  26262.68167468  .00000567  00000+0  27152-4 0  99932 53015  53.1611 285.3578 0001332  73.1235 286.9914 15.35404515232370

JSON: /api/v1/satellites/53015 · /tle

For live sub-satellite position, see the globe view (requires WebGL).

§ Visibility from observer

Set your observer location to see the next 7 days of passes ≥ 10°. The values pass through the URL so the page stays shareable.

No JS? Fill the form by hand. The geolocation button needs JavaScript.